[[{"header":{"parameterUnit":"m.s-1","parameterCategory":1,"la1":30.2991,"la2":30.254,"lo1":-89.0895,"lo2":-89.0444,"dy":0.0017,"dx":0.0017,"nx":28,"ny":28,"refTime":"2024-10-12T21:00:00:Z","depth":0,"parameterNumber":2,"parameterNumberName":"U-component_of_WINDS"},"data":[0,0,0,0,0,0,0,0,0,0,0,0,0,0,0,0,0,0,0,0,0,0,0,0,0,0,0,0,0,0,0,0,0,0,0,0,0,0,0,0,0,0,0,0,0,0,0,0,0,0,0,0,0,0,0,0,0,0,2.3086,2.3086,0,2.3115,2.3115,2.3115,2.3079,2.3078,2.3077,2.3075,2.3104,2.3106,2.3108,0,0,0,0,0,0,0,0,0,0,0,0,0,2.2998,2.3,2.3086,2.3086,2.3087,2.3114,2.3115,2.3115,2.3079,2.3078,2.3076,2.3075,2.3103,2.3106,2.3108,0,0,0,0,0,0,0,0,0,0,0,0,0,2.3032,2.3,2.3086,2.3072,2.3071,2.3114,2.3115,2.3115,2.308,2.3078,2.3076,2.3074,2.3103,2.3105,2.3108,2.3166,0,0,2.3118,2.3119,0,0,0,0,0,0,0,0,2.303,2.3036,2.3074,2.3073,2.3072,2.3091,2.3094,2.3132,2.308,2.3077,2.3075,2.3073,2.3101,2.3104,2.3114,2.3168,2.3169,2.3118,2.312,2.3121,2.3122,0,0,0,0,0,0,0,2.3028,2.3034,2.3097,2.3074,2.3074,2.3064,2.3066,2.3101,2.31,2.3077,2.3074,2.3078,2.3101,2.3111,2.3114,2.3169,2.3118,2.312,2.3122,2.3123,2.3267,2.3268,0,0,0,0,0,0,2.3027,2.3032,2.3096,2.3098,2.3046,2.3067,2.307,2.3087,2.3099,2.3099,2.308,2.3076,2.3107,2.3111,2.3115,2.318,2.3121,2.3124,2.3125,2.3265,2.3267,2.3269,0,0,0,0,0,0,2.3026,2.3034,2.3095,2.3065,2.3072,2.3071,2.309,2.3089,2.3099,2.3101,2.3101,2.3091,2.3106,2.3111,2.3153,2.3181,2.3125,2.3128,2.3262,2.3265,2.3268,2.3312,0,0,0,0,0,0,2.3023,2.3033,2.3056,2.3065,2.3073,2.3133,2.3092,2.3091,2.3105,2.31,2.3112,2.3112,2.3105,2.3148,2.3156,2.3184,2.313,2.326,2.3264,2.3267,2.3308,2.3316,2.3323,0,0,0,0,0,2.302,2.3068,2.3057,2.3065,2.3102,2.3135,2.314,2.313,2.3107,2.3129,2.313,2.3111,2.3177,2.3153,2.3161,2.319,2.3258,2.3262,2.3267,2.3305,2.3315,2.3323,0,0,0,0,0,0,2.3063,2.3069,2.3057,2.311,2.3122,2.3129,2.3157,2.3142,2.3161,2.3156,2.3144,2.3146,2.319,2.3195,2.3168,2.3244,2.3213,2.322,2.3239,2.3249,2.3256,2.3253,2.3133,0,0,0,0,0,2.3079,2.3106,2.311,2.3155,2.3162,2.3158,2.3173,2.3164,2.3176,2.3181,2.3185,2.3197,2.3219,2.3235,2.3256,2.3309,2.3309,2.3333,2.3341,2.3347,2.3352,2.3376,2.3385,2.3284,2.3284,2.3284,0,0,2.3112,2.3118,2.3136,2.3164,2.3173,2.3199,2.3163,2.3194,2.3212,2.3186,2.3224,2.3227,2.324,2.3286,2.3307,2.3291,2.338,2.3353,2.3358,2.3359,2.3381,2.3391,2.3399,2.3287,2.3287,2.3286,0,0,2.3183,2.3193,2.323,2.3238,2.3251,2.3247,2.3256,2.3265,2.3265,2.3304,2.3283,2.3305,2.3346,2.3354,2.3363,2.3435,2.3417,2.3442,2.3481,2.3504,2.3512,2.3519,2.3541,2.3549,2.3447,2.3448,2.3448,0,2.3222,2.3261,2.3251,2.3281,2.3293,2.3269,2.3305,2.3314,2.3333,2.3341,2.3323,2.3371,2.3378,2.3423,2.344,2.345,2.3458,2.344,2.3512,2.3519,2.3525,2.3546,2.3554,2.345,2.345,2.345,2.3449,0,2.3306,2.3334,2.3362,2.3379,2.3394,2.3428,2.342,2.3436,2.3426,2.3424,2.3461,2.3469,2.3489,2.35,2.3491,2.3543,2.3533,2.3514,2.3482,2.3538,2.3556,2.3565,2.3454,2.3453,2.3452,2.3452,0,0,2.3407,2.3415,2.3425,2.3431,2.3442,2.3462,2.3493,2.3512,2.3525,2.3539,2.3562,2.3595,2.3577,2.3588,2.3579,2.3601,2.3651,2.3579,2.3579,2.3589,2.3705,2.3717,2.3726,2.3641,2.3642,2.3643,2.3703,0,2.3476,2.3528,2.3518,2.3569,2.3592,2.3568,2.3595,2.3603,2.3602,2.362,2.3619,2.3641,2.3617,2.3622,2.3643,2.3641,2.3674,2.3637,2.366,2.3661,2.3655,2.3737,2.375,2.3806,2.3711,2.3712,2.3713,0,2.3563,2.3578,2.3631,2.3633,2.3643,2.3667,2.3681,2.37,2.3708,2.3705,2.3716,2.3702,2.3731,2.37,2.3738,2.3712,2.3721,2.3722,2.3724,2.3723,2.3689,2.3736,2.3824,2.3831,2.3725,2.3724,2.3723,0,2.3626,2.366,2.3694,2.37,2.3706,2.3722,2.3725,2.3732,2.3742,2.3755,2.3762,2.3779,2.3787,2.3799,2.379,2.3769,2.3827,2.3797,2.3823,2.3824,2.3835,2.3834,2.3923,2.3846,2.3846,2.3846,2.3846,0,2.3703,2.3735,2.3722,2.3743,2.3777,2.3765,2.3799,2.3799,2.3804,2.3824,2.3806,2.3824,2.3812,2.3829,2.3822,2.3852,2.3857,2.3853,2.385,2.3853,2.3853,2.3857,2.3852,2.3848,2.3848,2.3847,2.3847,0,2.3778,2.3771,2.3807,2.3808,2.3809,2.3834,2.3834,2.3853,2.3849,2.3874,2.3879,2.3873,2.3892,2.3884,2.3905,2.39,2.3937,2.3931,2.3934,2.3931,2.3957,2.3953,2.4049,2.4059,2.3979,2.3979,2.398,0,2.3826,2.385,2.3853,2.3864,2.3868,2.3887,2.3897,2.3885,2.3896,2.3905,2.3921,2.3938,2.3951,2.3982,2.3979,2.3993,2.3985,2.4018,2.3987,2.3988,2.3981,2.3979,2.398,2.4023,2.4024,2.4025,2.4026,0,2.391,2.3905,2.392,2.3933,2.3945,2.3955,2.3964,2.3974,2.3961,2.3975,2.3993,2.4003,2.4022,2.4038,2.405,2.4052,2.4036,2.4035,2.4042,2.4043,2.4043,2.404,2.3947,2.4033,2.4032,2.4032,2.4031,2.4031,2.3971,2.399,2.3993,2.401,2.4014,2.4021,2.4038,2.4035,2.405,2.4064,2.4056,2.4076,2.408,2.4095,2.4098,2.4113,2.41,2.4111,2.4113,2.4114,2.4116,2.4042,2.4116,2.4116,2.4116,2.4115,2.4115,0,2.4051,2.4052,2.4067,2.4078,2.409,2.4073,2.4081,2.4092,2.411,2.4115,2.4127,2.4146,2.4161,2.4158,2.4171,2.4183,2.4176,2.4186,2.4184,2.4184,2.4129,2.412,2.4192,2.4192,2.4192,2.4192,2.4192,2.4192,2.4094,2.4123,2.4117,2.4147,2.4147,2.4166,2.4171,2.4177,2.418,2.4202,2.4213,2.4211,2.4213,2.4225,2.4237,2.4235,2.4239,2.4252,2.4248,2.4196,2.4188,2.4181,2.4173,2.4254,2.4254,2.4301,2.4302,2.4302]},{"header":{"parameterUnit":"m.s-1","parameterCategory":1,"la1":30.2991,"la2":30.254,"lo1":-89.0895,"lo2":-89.0444,"dy":0.0017,"dx":0.0017,"nx":28,"ny":28,"refTime":"2024-10-12T21:00:00:Z","depth":0,"parameterNumber":3,"parameterNumberName":"V-component_of_WINDS"},"data":[0,0,0,0,0,0,0,0,0,0,0,0,0,0,0,0,0,0,0,0,0,0,0,0,0,0,0,0,0,0,0,0,0,0,0,0,0,0,0,0,0,0,0,0,0,0,0,0,0,0,0,0,0,0,0,0,0,0,1.1726,1.1726,0,1.1734,1.1734,1.1734,1.171,1.1709,1.1708,1.1708,1.1715,1.1716,1.1717,0,0,0,0,0,0,0,0,0,0,0,0,0,1.1688,1.1689,1.1726,1.1726,1.1726,1.1734,1.1734,1.1734,1.171,1.1709,1.1708,1.1707,1.1715,1.1716,1.1717,0,0,0,0,0,0,0,0,0,0,0,0,0,1.1701,1.1689,1.1726,1.1715,1.1714,1.1734,1.1734,1.1734,1.171,1.1709,1.1708,1.1707,1.1715,1.1716,1.1717,1.1747,0,0,1.1721,1.1722,0,0,0,0,0,0,0,0,1.17,1.1703,1.1717,1.1716,1.1715,1.172,1.1723,1.1738,1.1711,1.1712,1.1708,1.1706,1.1718,1.1719,1.1722,1.1748,1.1748,1.1721,1.1722,1.1723,1.1723,0,0,0,0,0,0,0,1.17,1.1702,1.1729,1.1717,1.1716,1.1709,1.171,1.1726,1.1721,1.1712,1.171,1.1711,1.1717,1.1721,1.1722,1.1748,1.1721,1.1722,1.1723,1.1724,1.1795,1.1796,0,0,0,0,0,0,1.17,1.1702,1.1729,1.1729,1.1705,1.1711,1.1711,1.1719,1.172,1.172,1.1712,1.171,1.1719,1.1721,1.1723,1.1756,1.1723,1.1724,1.1725,1.1794,1.1795,1.1796,0,0,0,0,0,0,1.17,1.1703,1.1729,1.1715,1.1718,1.1713,1.1722,1.172,1.1724,1.1721,1.172,1.1718,1.1719,1.1721,1.1741,1.1756,1.1724,1.1726,1.1792,1.1794,1.1796,1.1824,0,0,0,0,0,0,1.1699,1.1703,1.1715,1.1715,1.1719,1.1747,1.1723,1.1721,1.1727,1.1724,1.1726,1.1725,1.1718,1.1739,1.1742,1.1757,1.1727,1.1791,1.1793,1.1795,1.1822,1.1826,1.183,0,0,0,0,0,1.1697,1.1723,1.1716,1.1719,1.1734,1.1748,1.175,1.1742,1.1728,1.174,1.1737,1.1725,1.1754,1.1741,1.1744,1.176,1.179,1.1792,1.1795,1.182,1.1825,1.183,0,0,0,0,0,0,1.1726,1.1723,1.1715,1.1742,1.1745,1.1744,1.1759,1.1749,1.1756,1.1753,1.1742,1.1743,1.1764,1.1764,1.175,1.1788,1.1769,1.1773,1.1787,1.1792,1.1797,1.1796,1.1728,0,0,0,0,0,1.1735,1.1748,1.1745,1.1769,1.1771,1.1764,1.1771,1.1764,1.1767,1.1768,1.1767,1.177,1.1779,1.1786,1.1795,1.1821,1.182,1.1834,1.1838,1.1842,1.1844,1.1856,1.1861,1.1804,1.1804,1.1804,0,0,1.1755,1.1755,1.1764,1.1774,1.1776,1.1788,1.1766,1.1781,1.1789,1.177,1.1788,1.1787,1.179,1.1813,1.1823,1.1813,1.186,1.1845,1.1848,1.1849,1.1859,1.1864,1.1869,1.1806,1.1806,1.1805,0,0,1.1796,1.1798,1.1817,1.1819,1.1822,1.1817,1.1821,1.1821,1.182,1.1838,1.1823,1.1832,1.185,1.1851,1.1854,1.1893,1.1882,1.1896,1.1919,1.1931,1.1935,1.1939,1.1951,1.1956,1.1899,1.1899,1.1899,0,1.182,1.1838,1.1829,1.1843,1.1847,1.183,1.1848,1.185,1.1856,1.1859,1.1848,1.1867,1.1868,1.189,1.1899,1.1903,1.1906,1.1896,1.1935,1.1939,1.1943,1.1954,1.1959,1.1901,1.1901,1.1901,1.19,0,1.1867,1.1879,1.1894,1.1899,1.1905,1.1921,1.1913,1.192,1.1911,1.1907,1.1924,1.1924,1.1931,1.1936,1.1929,1.1956,1.1949,1.1937,1.1919,1.195,1.196,1.1965,1.1903,1.1903,1.1902,1.1902,0,0,1.1928,1.1925,1.1931,1.1931,1.1932,1.1941,1.1955,1.1962,1.1967,1.1971,1.1982,1.1995,1.1983,1.1987,1.1979,1.1989,1.2017,1.1975,1.1975,1.1982,1.2045,1.2053,1.2059,1.2009,1.201,1.2011,1.2044,0,1.1968,1.1993,1.1983,1.2008,1.2018,1.2001,1.2013,1.2014,1.201,1.2017,1.2012,1.2021,1.2006,1.2007,1.2017,1.2012,1.203,1.201,1.2018,1.2019,1.2017,1.2064,1.2074,1.2105,1.2048,1.2049,1.2049,0,1.2018,1.2022,1.2048,1.2044,1.2048,1.206,1.2063,1.2071,1.2071,1.2067,1.2069,1.2058,1.2071,1.2052,1.2068,1.2055,1.2057,1.2055,1.2056,1.2056,1.2036,1.2064,1.2115,1.2119,1.2056,1.2055,1.2055,0,1.2058,1.207,1.2087,1.2088,1.2085,1.2092,1.2091,1.209,1.2093,1.2096,1.2098,1.2103,1.2105,1.2108,1.2098,1.2086,1.2115,1.2096,1.2111,1.2111,1.2118,1.2117,1.2168,1.2121,1.2121,1.2121,1.2121,0,1.2102,1.2119,1.2104,1.2115,1.2132,1.2119,1.2136,1.2133,1.2131,1.2139,1.2125,1.2133,1.2119,1.2125,1.2118,1.2131,1.2132,1.2128,1.2126,1.2129,1.213,1.2131,1.2128,1.2122,1.2122,1.2122,1.2121,0,1.215,1.2141,1.2158,1.2152,1.2151,1.2164,1.2158,1.2167,1.2161,1.2171,1.2173,1.2163,1.2169,1.2159,1.2165,1.2159,1.2177,1.2172,1.2177,1.2175,1.219,1.2188,1.2243,1.2249,1.2199,1.2199,1.22,0,1.2179,1.2191,1.2186,1.219,1.2189,1.2197,1.22,1.2187,1.2191,1.219,1.2198,1.2203,1.2206,1.2216,1.2209,1.2212,1.2206,1.2225,1.2207,1.2209,1.2205,1.2204,1.2204,1.2229,1.223,1.223,1.2231,0,1.2231,1.2225,1.223,1.2233,1.2237,1.2239,1.2239,1.2243,1.223,1.2235,1.224,1.2243,1.2247,1.2251,1.2252,1.225,1.2237,1.2236,1.2239,1.2243,1.2245,1.2242,1.2186,1.2235,1.2235,1.2234,1.2234,1.2234,1.2269,1.2277,1.2274,1.228,1.2279,1.2279,1.2286,1.228,1.2284,1.2287,1.2279,1.2286,1.2283,1.2283,1.2281,1.2286,1.2277,1.2283,1.2284,1.2285,1.2287,1.2244,1.2286,1.2286,1.2286,1.2286,1.2286,0,1.2318,1.2315,1.232,1.232,1.2324,1.2312,1.2311,1.2315,1.2321,1.2319,1.2322,1.2327,1.233,1.2323,1.2325,1.233,1.2324,1.233,1.2329,1.2329,1.2295,1.2291,1.2335,1.2335,1.2335,1.2335,1.2335,1.2335,1.2344,1.2357,1.2351,1.2363,1.2359,1.2366,1.2366,1.2365,1.2364,1.237,1.2373,1.2367,1.2363,1.2363,1.2365,1.2363,1.2364,1.2372,1.2367,1.2336,1.2331,1.2327,1.2323,1.2373,1.2373,1.24,1.2401,1.2401]}]]